Location: Alladorf
(49.9620°N, 11.3790°E)
Time: 21:31:32
(UTC+00:00)

Cosmos 1844 Rocket - Pass Details

Date: 29 November 2020
Orbit: 824 x 845 km, 71.0° (Epoch: 25 January)

Event Time Altitude Azimuth Distance (km) Brightness Sun altitude
Rises 04:10:36 0° 183° (S) 3,375 5.9 -24.6°
Reaches altitude 10° 04:13:08 10° 176° (S) 2,448 5.2 -24.2°
Maximum altitude 04:18:21 41° 108° (ESE) 1,208 4.0 -23.4°
Drops below altitude 10° 04:23:38 10° 40° (NE) 2,474 5.5 -22.5°
Sets 04:26:12 0° 34° (NE) 3,415 6.2 -22.1°
